| time (UTC) | temp C | wind direction | speed KPH | gust KPH | rain 1hr cm | rain 24hr cm | rain mn cm | humidity % | barometer mb |
| 20260506143101 | 16 | 169 | 0.0 | 6.4 | 0.20 | 0.20 | 0.20 | 94 | 1006.6 |
| 20260506141602 | 16 | 263 | 0.0 | 3.2 | 0.15 | 0.15 | 0.15 | 93 | 1006.8 |
| 20260506140002 | 16 | 273 | 0.0 | 0.0 | 0.10 | 0.10 | 0.10 | 91 | 1006.8 |
| 20260506134504 | 16 | 213 | 1.6 | 6.4 | 0.03 | 0.03 | 0.03 | 87 | 1006.9 |
| 20260506133103 | 17 | 156 | 0.0 | 4.8 | 0.00 | 0.00 | 0.00 | 84 | 1006.5 |
| 20260506131505 | 17 | 247 | 3.2 | 11.3 | 0.00 | 0.00 | 0.00 | 82 | 1006.3 |
| 20260506130002 | 17 | 259 | 3.2 | 12.9 | 0.00 | 0.00 | 0.00 | 82 | 1006.2 |
| 20260506124503 | 17 | 255 | 1.6 | 14.5 | 0.00 | 0.00 | 0.00 | 81 | 1006.3 |
| 20260506121503 | 17 | 248 | 3.2 | 11.3 | 0.00 | 0.00 | 0.00 | 80 | 1006.7 |
| 20260506120110 | 17 | 231 | 3.2 | 8.0 | 0.00 | 0.00 | 0.00 | 80 | 1006.7 |
| 20260506114601 | 17 | 173 | 0.0 | 9.7 | 0.00 | 0.00 | 0.00 | 81 | 1006.8 |
| 20260506113005 | 16 | 255 | 1.6 | 6.4 | 0.00 | 0.00 | 0.00 | 81 | 1006.7 |
| 20260506111602 | 16 | 225 | 0.0 | 3.2 | 0.00 | 0.00 | 0.00 | 80 | 1006.5 |
| 20260506110106 | 16 | 216 | 0.0 | 4.8 | 0.00 | 0.00 | 0.00 | 80 | 1006.4 |
| 20260506104601 | 16 | 224 | 0.0 | 4.8 | 0.00 | 0.00 | 0.00 | 80 | 1006.4 |
| 20260506103021 | 16 | 273 | 0.0 | 0.0 | 0.00 | 0.00 | 0.00 | 79 | 1006.4 |
| 20260506101504 | 16 | 273 | 0.0 | 0.0 | 0.00 | 0.00 | 0.00 | 78 | 1006.2 |
| 20260506100121 | 16 | 273 | 0.0 | 3.2 | 0.00 | 0.00 | 0.00 | 77 | 1006.2 |
| 20260506094507 | 16 | 273 | 1.6 | 6.4 | 0.00 | 0.00 | 0.00 | 76 | 1006.3 |
| 20260506093105 | 16 | 228 | 0.0 | 6.4 | 0.00 | 0.00 | 0.00 | 77 | 1006.4 |
| 20260506091504 | 15 | 285 | 1.6 | 6.4 | 0.00 | 0.00 | 0.00 | 76 | 1006.2 |
| 20260506084624 | 15 | 223 | 0.0 | 4.8 | 0.00 | 0.00 | 0.00 | 77 | 1006.4 |
| 20260506083104 | 15 | 210 | 0.0 | 0.0 | 0.00 | 0.00 | 0.00 | 77 | 1006.4 |
| 20260506081502 | 15 | 210 | 0.0 | 0.0 | 0.00 | 0.00 | 0.00 | 75 | 1006.7 |
| 20260506073003 | 16 | 210 | 0.0 | 0.0 | 0.00 | 0.00 | 0.00 | 71 | 1006.6 |
| 20260506071502 | 17 | 210 | 0.0 | 0.0 | 0.00 | 0.00 | 0.00 | 69 | 1006.6 |
| 20260506061503 | 18 | 247 | 1.6 | 9.7 | 0.00 | 0.00 | 0.00 | 63 | 1007.2 |
| 20260506050104 | 19 | 165 | 0.0 | 8.0 | 0.00 | 0.00 | 0.00 | 61 | 1007.4 |
| 20260506044712 | 19 | 221 | 0.0 | 8.0 | 0.00 | 0.00 | 0.00 | 58 | 1007.5 |
| 20260506043110 | 19 | 200 | 1.6 | 8.0 | 0.00 | 0.00 | 0.00 | 59 | 1007.3 |
| 20260506041519 | 19 | 228 | 1.6 | 6.4 | 0.00 | 0.00 | 0.00 | 57 | 1007.3 |
| 20260506040002 | 20 | 238 | 0.0 | 3.2 | 0.00 | 0.00 | 0.00 | 56 | 1007.3 |
| 20260506034502 | 20 | 224 | 1.6 | 9.7 | 0.00 | 0.00 | 0.00 | 56 | 1007.1 |
| 20260506033002 | 20 | 254 | 1.6 | 12.9 | 0.00 | 0.00 | 0.00 | 55 | 1007.1 |
| 20260506031606 | 20 | 229 | 1.6 | 12.9 | 0.00 | 0.00 | 0.00 | 55 | 1007.1 |
| 20260506030003 | 20 | 172 | 0.0 | 4.8 | 0.00 | 0.00 | 0.00 | 54 | 1007.2 |
| 20260506024502 | 21 | 229 | 0.0 | 3.2 | 0.00 | 0.00 | 0.00 | 50 | 1007.3 |
| 20260506023113 | 21 | 227 | 1.6 | 9.7 | 0.00 | 0.00 | 0.00 | 50 | 1007.3 |
| 20260506021502 | 21 | 248 | 1.6 | 6.4 | 0.00 | 0.00 | 0.00 | 53 | 1007.2 |
| 20260506014603 | 21 | 252 | 0.0 | 6.4 | 0.00 | 0.00 | 0.00 | 56 | 1007.0 |
| 20260506013002 | 21 | 251 | 3.2 | 11.3 | 0.00 | 0.00 | 0.00 | 55 | 1006.9 |
| 20260506011626 | 21 | 261 | 1.6 | 6.4 | 0.00 | 0.00 | 0.00 | 52 | 1006.7 |
| 20260506010005 | 22 | 275 | 0.0 | 6.4 | 0.00 | 0.00 | 0.00 | 50 | 1006.6 |
| 20260506004503 | 22 | 236 | 0.0 | 4.8 | 0.00 | 0.00 | 0.00 | 49 | 1006.5 |
| 20260506003113 | 22 | 226 | 0.0 | 12.9 | 0.00 | 0.00 | 0.00 | 47 | 1006.4 |
| 20260506001502 | 22 | 250 | 1.6 | 14.5 | 0.00 | 0.00 | 0.00 | 48 | 1006.1 |
| 20260505234507 | 22 | 311 | 0.0 | 12.9 | 0.00 | 0.00 | 0.00 | 46 | 1005.9 |
| 20260505233115 | 23 | 215 | 0.0 | 8.0 | 0.00 | 0.00 | 0.00 | 44 | 1005.7 |
| 20260505231601 | 23 | 267 | 0.0 | 14.5 | 0.00 | 0.00 | 0.00 | 40 | 1005.6 |
| 20260505230002 | 23 | 183 | 0.0 | 8.0 | 0.00 | 0.00 | 0.00 | 39 | 1005.5 |
| 20260505224503 | 23 | 161 | 3.2 | 9.7 | 0.00 | 0.00 | 0.00 | 38 | 1005.3 |
| 20260505223106 | 24 | 286 | 3.2 | 14.5 | 0.00 | 0.00 | 0.00 | 35 | 1005.1 |
| 20260505221503 | 24 | 257 | 4.8 | 19.3 | 0.00 | 0.00 | 0.00 | 35 | 1004.9 |
| 20260505220011 | 24 | 113 | 4.8 | 19.3 | 0.00 | 0.00 | 0.00 | 35 | 1004.8 |
| 20260505214501 | 25 | 273 | 3.2 | 19.3 | 0.00 | 0.00 | 0.00 | 36 | 1004.7 |
| 20260505213105 | 25 | 242 | 4.8 | 16.1 | 0.00 | 0.00 | 0.00 | 33 | 1004.5 |
| 20260505211604 | 25 | 263 | 3.2 | 14.5 | 0.00 | 0.00 | 0.00 | 33 | 1004.4 |
| 20260505210002 | 26 | 193 | 6.4 | 16.1 | 0.00 | 0.00 | 0.00 | 32 | 1004.4 |
| 20260505204502 | 27 | 211 | 6.4 | 22.5 | 0.00 | 0.00 | 0.00 | 31 | 1004.2 |
| 20260505203102 | 27 | 279 | 6.4 | 16.1 | 0.00 | 0.00 | 0.00 | 32 | 1004.2 |
| 20260505201502 | 27 | 281 | 3.2 | 19.3 | 0.00 | 0.00 | 0.00 | 33 | 1004.2 |
| 20260505200106 | 27 | 231 | 6.4 | 25.7 | 0.00 | 0.00 | 0.00 | 32 | 1004.5 |
| 20260505194602 | 26 | 232 | 8.0 | 20.9 | 0.00 | 0.00 | 0.00 | 33 | 1004.7 |
| 20260505193010 | 27 | 203 | 8.0 | 25.7 | 0.00 | 0.00 | 0.00 | 35 | 1004.6 |
| 20260505191603 | 26 | 128 | 6.4 | 19.3 | 0.00 | 0.00 | 0.00 | 36 | 1005.0 |
| 20260505190003 | 26 | 296 | 4.8 | 19.3 | 0.00 | 0.00 | 0.00 | 35 | 1005.2 |
| 20260505184611 | 26 | 344 | 6.4 | 19.3 | 0.00 | 0.00 | 0.00 | 36 | 1005.3 |
| 20260505183002 | 26 | 163 | 4.8 | 24.1 | 0.00 | 0.00 | 0.00 | 37 | 1005.1 |
| 20260505181502 | 26 | 292 | 3.2 | 17.7 | 0.00 | 0.00 | 0.00 | 37 | 1005.6 |
| 20260505180105 | 26 | 188 | 6.4 | 27.4 | 0.00 | 0.00 | 0.00 | 38 | 1005.7 |
| 20260505174613 | 26 | 220 | 8.0 | 24.1 | 0.00 | 0.00 | 0.00 | 39 | 1005.6 |
| 20260505173103 | 26 | 225 | 6.4 | 22.5 | 0.00 | 0.00 | 0.00 | 40 | 1005.9 |
| 20260505171502 | 26 | 255 | 4.8 | 16.1 | 0.00 | 0.00 | 0.00 | 41 | 1006.0 |
| 20260505170138 | 26 | 205 | 3.2 | 17.7 | 0.00 | 0.00 | 0.00 | 42 | 1006.0 |
| 20260505164602 | 26 | 199 | 6.4 | 22.5 | 0.00 | 0.00 | 0.00 | 44 | 1006.2 |
| 20260505163002 | 26 | 262 | 6.4 | 22.5 | 0.00 | 0.00 | 0.00 | 42 | 1006.6 |
| 20260505161503 | 26 | 344 | 3.2 | 11.3 | 0.00 | 0.00 | 0.00 | 42 | 1006.9 |
| 20260505153103 | 25 | 45 | 3.2 | 16.1 | 0.00 | 0.00 | 0.00 | 43 | 1007.4 |
| 20260505151502 | 25 | 43 | 3.2 | 14.5 | 0.00 | 0.00 | 0.00 | 45 | 1007.5 |